EW9254 Weather Reports


time (UTC)temp
C
wind
direction
speed
KPH
gust
KPH
rain 1hr
cm
rain 24hr
cm
rain mn
cm
humidity
%
barometer
mb
20260505070022 15 217 3.2 14.5 0.00 0.03 0.03 75 1022.7
20260505064520 15 196 3.2 11.3 0.00 0.05 0.03 74 1022.6
20260505063020 15 246 4.8 11.3 0.00 0.05 0.03 74 1022.5
20260505061530 16 199 6.4 14.5 0.00 0.05 0.03 73 1022.4
20260505060026 16 188 8.0 12.9 0.00 0.05 0.03 72 1022.3
20260505054517 16 240 4.8 12.9 0.00 0.05 0.03 73 1022.2
20260505053017 16 243 6.4 14.5 0.00 0.05 0.03 73 1022.1
20260505051517 16 234 6.4 12.9 0.00 0.05 0.03 72 1021.9
20260505041525 16 224 3.2 9.7 0.00 0.05 0.03 72 1021.6
20260505040015 16 226 6.4 11.3 0.00 0.05 0.03 71 1021.6
20260505034512 16 275 3.2 11.3 0.00 0.05 0.03 72 1021.5
20260505033010 16 264 3.2 9.7 0.00 0.05 0.03 71 1021.6
20260505031509 16 248 4.8 11.3 0.00 0.05 0.03 70 1021.7
20260505030006 16 214 3.2 11.3 0.00 0.05 0.03 71 1021.9
20260505024503 16 234 3.2 11.3 0.00 0.05 0.03 73 1022.0
20260505023103 16 246 4.8 9.7 0.00 0.05 0.03 72 1022.2
20260505021558 16 224 6.4 12.9 0.00 0.05 0.03 71 1022.4
20260505020057 16 275 4.8 11.3 0.00 0.05 0.03 75 1022.5
20260505014554 16 207 3.2 11.3 0.00 0.05 0.03 75 1022.7
20260505013056 16 211 4.8 12.9 0.00 0.05 0.03 74 1022.8
20260505011551 16 221 3.2 14.5 0.00 0.05 0.03 75 1022.8
20260505010048 16 226 4.8 11.3 0.00 0.05 0.03 77 1022.6
20260505004544 15 204 1.6 12.9 0.00 0.05 0.03 79 1022.6
20260505003144 15 245 3.2 12.9 0.00 0.05 0.03 82 1022.5
20260505001548 15 191 3.2 9.7 0.00 0.05 0.03 84 1022.4
20260505000039 14 288 3.2 14.5 0.00 0.05 0.03 87 1022.4
20260504234528 13 230 3.2 11.3 0.00 0.05 0.03 88 1022.5
20260504233025 13 241 6.4 11.3 0.00 0.05 0.03 89 1022.4
20260504231528 12 245 4.8 9.7 0.00 0.05 0.03 91 1022.2
20260504230018 12 229 4.8 11.3 0.00 0.05 0.03 93 1022.2
20260504224514 11 252 3.2 11.3 0.00 0.05 0.03 94 1022.0
20260504223008 10 240 3.2 8.0 0.00 0.05 0.03 94 1021.8
20260504221505 10 238 3.2 8.0 0.00 0.05 0.03 94 1021.7
20260504220100 10 258 3.2 9.7 0.00 0.05 0.03 94 1021.4
20260504214555 9 298 4.8 11.3 0.00 0.05 0.03 94 1021.4
20260504213050 9 273 4.8 11.3 0.00 0.05 0.03 94 1021.1
20260504211552 9 273 4.8 9.7 0.00 0.05 0.03 94 1020.9
20260504210104 9 265 4.8 9.7 0.00 0.05 0.03 94 1020.6
20260504204553 8 264 4.8 8.0 0.00 0.05 0.03 94 1020.4
20260504203048 8 273 3.2 6.4 0.00 0.05 0.03 93 1020.4
20260504201548 8 274 3.2 6.4 0.00 0.05 0.03 93 1020.3
20260504200042 8 272 3.2 4.8 0.00 0.05 0.03 93 1020.2
20260504194559 8 271 3.2 6.4 0.00 0.05 0.03 93 1020.1
20260504193039 9 279 3.2 6.4 0.00 0.05 0.03 93 1020.1
20260504191546 9 273 3.2 6.4 0.00 0.05 0.03 93 1019.9
20260504190044 9 273 3.2 9.7 0.03 0.05 0.03 93 1019.8
20260504184538 9 263 3.2 6.4 0.03 0.05 0.03 93 1019.6
20260504183032 9 250 3.2 6.4 0.03 0.05 0.03 93 1019.6
20260504181530 8 297 1.6 3.2 0.03 0.05 0.03 92 1019.5
20260504180035 8 315 0.0 3.2 0.00 0.03 0.00 92 1019.5
20260504174526 9 275 0.0 3.2 0.00 0.03 0.00 92 1019.4
20260504173024 10 275 3.2 6.4 0.00 0.03 0.00 92 1019.4
20260504171526 10 271 3.2 6.4 0.00 0.03 0.00 92 1019.3
20260504120114 10 318 0.0 3.2 0.00 0.03 0.03 91 1018.7
20260504081529 14 309 1.6 4.8 0.00 0.03 0.03 79 1015.6